Voltar ao catálogo

STARLINK-30986

AtivoComunicaçõesVLEO
NORAD 58492·PAYLOAD·🇺🇸 United States

Lançado Dec 3, 2023 de Cape Canaveral Space Force Station

Loading…

Próximas Passagens (próximas 24 horas)

TLE

AtualizadoSource: CelesTrak SupGP

Época: Sep 15, 2026, 02:24 UTC

1 58492C 23186V   26258.10048611 -.00001275  00000+0 -46189-4 0  2588
2 58492  43.0034  73.8278 0001888 268.4044 161.8444 15.27561601    15

Acompanhe STARLINK-30986 em tempo real com AllMySat

Download on the App Store